| time (UTC) | temp C | wind direction | speed KPH | gust KPH | rain 1hr cm | rain 24hr cm | rain mn cm | humidity % | barometer mb |
| 20260506122934 | 18 | 93 | 12.9 | 16.1 | 0.00 | 0.00 | 0.00 | 58 | 1007.5 |
| 20260506122430 | 18 | 91 | 11.3 | 17.7 | 0.00 | 0.00 | 0.00 | 57 | 1007.3 |
| 20260506121929 | 18 | 83 | 6.4 | 12.9 | 0.00 | 0.00 | 0.00 | 59 | 1007.4 |
| 20260506121426 | 18 | 94 | 4.8 | 17.7 | 0.00 | 0.00 | 0.00 | 59 | 1007.2 |
| 20260506120923 | 18 | 80 | 14.5 | 20.9 | 0.00 | 0.00 | 0.00 | 56 | 1007.7 |
| 20260506120420 | 18 | 82 | 9.7 | 17.7 | 0.00 | 0.00 | 0.00 | 56 | 1007.5 |
| 20260506115917 | 18 | 85 | 8.0 | 22.5 | 0.00 | 0.00 | 0.00 | 59 | 1007.4 |
| 20260506115415 | 18 | 86 | 14.5 | 22.5 | 0.00 | 0.00 | 0.00 | 56 | 1007.7 |
| 20260506114913 | 18 | 58 | 12.9 | 29.0 | 0.00 | 0.00 | 0.00 | 55 | 1007.5 |
| 20260506114410 | 18 | 92 | 9.7 | 12.9 | 0.00 | 0.00 | 0.00 | 58 | 1007.5 |
| 20260506113909 | 18 | 79 | 6.4 | 14.5 | 0.00 | 0.00 | 0.00 | 60 | 1007.7 |
| 20260506113406 | 17 | 66 | 6.4 | 22.5 | 0.00 | 0.00 | 0.00 | 59 | 1007.7 |
| 20260506112903 | 17 | 28 | 8.0 | 14.5 | 0.00 | 0.00 | 0.00 | 60 | 1007.8 |
| 20260506112400 | 17 | 101 | 8.0 | 20.9 | 0.00 | 0.00 | 0.00 | 61 | 1008.0 |
| 20260506111857 | 17 | 90 | 6.4 | 24.1 | 0.00 | 0.00 | 0.00 | 57 | 1008.0 |
| 20260506111355 | 17 | 69 | 12.9 | 17.7 | 0.00 | 0.00 | 0.00 | 56 | 1007.9 |
| 20260506110852 | 17 | 96 | 6.4 | 20.9 | 0.00 | 0.00 | 0.00 | 60 | 1008.1 |
| 20260506110350 | 17 | 85 | 6.4 | 22.5 | 0.00 | 0.00 | 0.00 | 59 | 1008.0 |
| 20260506105847 | 17 | 74 | 4.8 | 16.1 | 0.00 | 0.00 | 0.00 | 61 | 1008.3 |
| 20260506105343 | 17 | 83 | 12.9 | 22.5 | 0.00 | 0.00 | 0.00 | 58 | 1008.2 |
| 20260506104840 | 17 | 81 | 17.7 | 24.1 | 0.00 | 0.00 | 0.00 | 57 | 1008.1 |
| 20260506104338 | 17 | 91 | 11.3 | 16.1 | 0.00 | 0.00 | 0.00 | 60 | 1008.2 |
| 20260506103836 | 16 | 118 | 9.7 | 16.1 | 0.00 | 0.00 | 0.00 | 60 | 1008.4 |
| 20260506103333 | 16 | 86 | 6.4 | 16.1 | 0.00 | 0.00 | 0.00 | 60 | 1008.4 |
| 20260506102830 | 16 | 47 | 4.8 | 14.5 | 0.00 | 0.00 | 0.00 | 60 | 1008.5 |
| 20260506102328 | 17 | 87 | 9.7 | 14.5 | 0.00 | 0.00 | 0.00 | 58 | 1008.5 |
| 20260506101825 | 16 | 47 | 8.0 | 11.3 | 0.00 | 0.00 | 0.00 | 61 | 1008.5 |
| 20260506101321 | 16 | 65 | 8.0 | 16.1 | 0.00 | 0.00 | 0.00 | 60 | 1008.8 |
| 20260506100819 | 16 | 82 | 3.2 | 12.9 | 0.00 | 0.00 | 0.00 | 63 | 1008.8 |
| 20260506100317 | 16 | 60 | 6.4 | 17.7 | 0.00 | 0.00 | 0.00 | 63 | 1008.7 |
| 20260506095815 | 15 | 67 | 6.4 | 12.9 | 0.00 | 0.00 | 0.00 | 63 | 1008.6 |
| 20260506095312 | 15 | 30 | 6.4 | 20.9 | 0.00 | 0.00 | 0.00 | 61 | 1008.5 |
| 20260506094809 | 15 | 67 | 14.5 | 20.9 | 0.00 | 0.00 | 0.00 | 62 | 1008.6 |
| 20260506094307 | 15 | 75 | 8.0 | 22.5 | 0.00 | 0.00 | 0.00 | 61 | 1008.5 |
| 20260506093805 | 15 | 65 | 8.0 | 14.5 | 0.00 | 0.00 | 0.00 | 64 | 1008.5 |
| 20260506093302 | 15 | 72 | 9.7 | 22.5 | 0.00 | 0.00 | 0.00 | 62 | 1008.6 |
| 20260506092800 | 15 | 85 | 6.4 | 20.9 | 0.00 | 0.00 | 0.00 | 63 | 1008.5 |
| 20260506092257 | 15 | 38 | 14.5 | 17.7 | 0.00 | 0.00 | 0.00 | 62 | 1008.6 |
| 20260506091754 | 15 | 72 | 14.5 | 20.9 | 0.00 | 0.00 | 0.00 | 63 | 1008.3 |
| 20260506091252 | 14 | 80 | 8.0 | 14.5 | 0.00 | 0.00 | 0.00 | 65 | 1008.5 |
| 20260506090750 | 14 | 50 | 12.9 | 25.7 | 0.00 | 0.00 | 0.00 | 63 | 1008.7 |
| 20260506090247 | 15 | 73 | 9.7 | 17.7 | 0.00 | 0.00 | 0.00 | 64 | 1008.6 |
| 20260506085743 | 14 | 51 | 8.0 | 24.1 | 0.00 | 0.00 | 0.00 | 64 | 1008.6 |
| 20260506085240 | 15 | 48 | 14.5 | 17.7 | 0.00 | 0.00 | 0.00 | 65 | 1008.6 |
| 20260506084736 | 14 | 41 | 4.8 | 14.5 | 0.00 | 0.00 | 0.00 | 66 | 1008.8 |
| 20260506084233 | 14 | 74 | 8.0 | 20.9 | 0.00 | 0.00 | 0.00 | 65 | 1008.8 |
| 20260506083730 | 14 | 64 | 4.8 | 16.1 | 0.00 | 0.00 | 0.00 | 66 | 1008.8 |
| 20260506083228 | 14 | 64 | 9.7 | 16.1 | 0.00 | 0.00 | 0.00 | 65 | 1008.8 |
| 20260506082725 | 14 | 56 | 3.2 | 16.1 | 0.00 | 0.00 | 0.00 | 68 | 1008.8 |
| 20260506082220 | 14 | 111 | 4.8 | 14.5 | 0.00 | 0.00 | 0.00 | 69 | 1009.1 |
| 20260506081718 | 13 | 78 | 4.8 | 14.5 | 0.00 | 0.00 | 0.00 | 69 | 1008.9 |
| 20260506081215 | 13 | 81 | 9.7 | 17.7 | 0.00 | 0.00 | 0.00 | 68 | 1009.2 |
| 20260506080713 | 13 | 80 | 8.0 | 16.1 | 0.00 | 0.00 | 0.00 | 70 | 1009.2 |
| 20260506080209 | 13 | 94 | 8.0 | 17.7 | 0.00 | 0.00 | 0.00 | 69 | 1009.2 |
| 20260506073154 | 12 | 65 | 11.3 | 16.1 | 0.00 | 0.00 | 0.00 | 72 | 1009.5 |
| 20260506072650 | 12 | 79 | 8.0 | 12.9 | 0.00 | 0.00 | 0.00 | 72 | 1009.2 |
| 20260506072148 | 12 | 92 | 11.3 | 17.7 | 0.00 | 0.00 | 0.00 | 72 | 1009.4 |
| 20260506071645 | 12 | 66 | 9.7 | 17.7 | 0.00 | 0.00 | 0.00 | 72 | 1009.5 |
| 20260506071143 | 12 | 63 | 6.4 | 12.9 | 0.00 | 0.00 | 0.00 | 74 | 1009.5 |
| 20260506070640 | 12 | 61 | 14.5 | 20.9 | 0.00 | 0.00 | 0.00 | 72 | 1009.4 |
| 20260506070137 | 12 | 56 | 9.7 | 12.9 | 0.00 | 0.00 | 0.00 | 73 | 1009.5 |
| 20260506062114 | 11 | 69 | 8.0 | 14.5 | 0.00 | 0.00 | 0.00 | 77 | 1009.7 |
| 20260506061609 | 11 | 60 | 8.0 | 16.1 | 0.00 | 0.00 | 0.00 | 79 | 1009.9 |
| 20260506061108 | 11 | 44 | 6.4 | 16.1 | 0.00 | 0.00 | 0.00 | 79 | 1009.7 |
| 20260506060606 | 10 | 42 | 8.0 | 11.3 | 0.00 | 0.00 | 0.00 | 81 | 1009.9 |
| 20260506051035 | 10 | 50 | 3.2 | 17.7 | 0.00 | 0.00 | 0.00 | 85 | 1009.8 |
| 20260506050532 | 10 | 7 | 9.7 | 16.1 | 0.00 | 0.00 | 0.00 | 85 | 1009.8 |
| 20260506045023 | 10 | 72 | 4.8 | 12.9 | 0.00 | 0.00 | 0.00 | 87 | 1009.8 |
| 20260506044521 | 10 | 75 | 6.4 | 16.1 | 0.00 | 0.00 | 0.00 | 87 | 1009.8 |
| 20260506044018 | 9 | 65 | 4.8 | 16.1 | 0.00 | 0.00 | 0.00 | 88 | 1009.7 |
| 20260506043515 | 9 | 66 | 8.0 | 12.9 | 0.00 | 0.00 | 0.00 | 89 | 1009.5 |
| 20260506043013 | 9 | 64 | 4.8 | 12.9 | 0.00 | 0.00 | 0.00 | 89 | 1009.6 |
| 20260506042512 | 9 | 53 | 6.4 | 11.3 | 0.00 | 0.00 | 0.00 | 89 | 1009.8 |
| 20260506042009 | 8 | 47 | 6.4 | 11.3 | 0.00 | 0.00 | 0.00 | 89 | 1009.7 |
| 20260506041508 | 8 | 30 | 4.8 | 11.3 | 0.00 | 0.00 | 0.00 | 89 | 1009.5 |
| 20260506041004 | 8 | 63 | 12.9 | 17.7 | 0.00 | 0.00 | 0.00 | 89 | 1009.6 |
| 20260506040502 | 8 | 90 | 4.8 | 11.3 | 0.00 | 0.00 | 0.00 | 89 | 1009.7 |
| 20260506035957 | 8 | 69 | 4.8 | 11.3 | 0.00 | 0.00 | 0.00 | 89 | 1009.6 |
| 20260506035455 | 8 | 69 | 6.4 | 12.9 | 0.00 | 0.00 | 0.00 | 89 | 1009.7 |
| 20260506034951 | 8 | 52 | 3.2 | 11.3 | 0.00 | 0.00 | 0.00 | 89 | 1009.6 |
| 20260506034449 | 8 | 50 | 9.7 | 12.9 | 0.00 | 0.00 | 0.00 | 88 | 1009.6 |
| 20260506033946 | 8 | 38 | 4.8 | 9.7 | 0.00 | 0.00 | 0.00 | 88 | 1009.6 |
| 20260506033443 | 8 | 42 | 8.0 | 12.9 | 0.00 | 0.00 | 0.00 | 88 | 1009.5 |
| 20260506032939 | 8 | 77 | 6.4 | 12.9 | 0.00 | 0.00 | 0.00 | 88 | 1009.6 |
| 20260506032437 | 8 | 85 | 6.4 | 9.7 | 0.00 | 0.00 | 0.00 | 88 | 1009.5 |
| 20260506031933 | 8 | 70 | 4.8 | 11.3 | 0.00 | 0.00 | 0.00 | 88 | 1009.5 |
| 20260506031431 | 8 | 62 | 6.4 | 12.9 | 0.00 | 0.00 | 0.00 | 88 | 1009.6 |
| 20260506030929 | 8 | 53 | 1.6 | 9.7 | 0.00 | 0.00 | 0.00 | 88 | 1009.4 |
| 20260506030426 | 8 | 73 | 3.2 | 11.3 | 0.00 | 0.00 | 0.00 | 88 | 1009.3 |
| 20260506025923 | 8 | 57 | 4.8 | 11.3 | 0.00 | 0.00 | 0.00 | 88 | 1009.5 |
| 20260506025420 | 8 | 68 | 0.0 | 9.7 | 0.00 | 0.00 | 0.00 | 88 | 1009.5 |
| 20260506024916 | 8 | 46 | 6.4 | 11.3 | 0.00 | 0.00 | 0.00 | 88 | 1009.2 |
| 20260506024414 | 8 | 90 | 3.2 | 4.8 | 0.00 | 0.00 | 0.00 | 88 | 1009.3 |
| 20260506023909 | 8 | 64 | 3.2 | 6.4 | 0.00 | 0.00 | 0.00 | 87 | 1009.2 |
| 20260506023407 | 8 | 88 | 6.4 | 16.1 | 0.00 | 0.00 | 0.00 | 87 | 1009.3 |
| 20260506022903 | 8 | 39 | 8.0 | 9.7 | 0.00 | 0.00 | 0.00 | 87 | 1009.3 |
| 20260506022401 | 8 | 38 | 3.2 | 9.7 | 0.00 | 0.00 | 0.00 | 87 | 1009.4 |
| 20260506021859 | 8 | 53 | 6.4 | 9.7 | 0.00 | 0.00 | 0.00 | 87 | 1009.3 |
| 20260506021355 | 8 | 84 | 8.0 | 9.7 | 0.00 | 0.00 | 0.00 | 87 | 1008.9 |
| 20260506020852 | 8 | 7 | 3.2 | 9.7 | 0.00 | 0.00 | 0.00 | 88 | 1009.2 |
| 20260506020350 | 8 | 38 | 4.8 | 9.7 | 0.00 | 0.00 | 0.00 | 87 | 1009.2 |
| 20260506015847 | 8 | 45 | 1.6 | 6.4 | 0.00 | 0.00 | 0.00 | 87 | 1009.1 |
| 20260506015345 | 8 | 69 | 3.2 | 6.4 | 0.00 | 0.00 | 0.00 | 87 | 1009.1 |
| 20260506014841 | 8 | 53 | 3.2 | 9.7 | 0.00 | 0.00 | 0.00 | 86 | 1009.1 |
| 20260506014338 | 8 | 55 | 6.4 | 12.9 | 0.00 | 0.00 | 0.00 | 86 | 1009.2 |
| 20260506013835 | 8 | 63 | 3.2 | 6.4 | 0.00 | 0.00 | 0.00 | 87 | 1008.9 |
| 20260506013333 | 8 | 57 | 3.2 | 6.4 | 0.00 | 0.00 | 0.00 | 87 | 1009.1 |
| 20260506012829 | 9 | 83 | 1.6 | 9.7 | 0.00 | 0.00 | 0.00 | 86 | 1009.2 |
| 20260506012326 | 9 | 68 | 1.6 | 12.9 | 0.00 | 0.00 | 0.00 | 85 | 1009.3 |
| 20260506011823 | 9 | 20 | 12.9 | 14.5 | 0.00 | 0.00 | 0.00 | 84 | 1009.4 |
| 20260506011319 | 10 | 24 | 4.8 | 6.4 | 0.00 | 0.00 | 0.00 | 83 | 1009.3 |
| 20260506010817 | 10 | 56 | 8.0 | 11.3 | 0.00 | 0.00 | 0.00 | 83 | 1009.3 |
| 20260506010315 | 10 | 356 | 4.8 | 6.4 | 0.00 | 0.00 | 0.00 | 82 | 1009.3 |
| 20260506005812 | 10 | 72 | 4.8 | 6.4 | 0.00 | 0.00 | 0.00 | 81 | 1009.4 |
| 20260506005308 | 10 | 8 | 3.2 | 6.4 | 0.00 | 0.00 | 0.00 | 80 | 1009.1 |
| 20260506004805 | 10 | 64 | 3.2 | 6.4 | 0.00 | 0.00 | 0.00 | 80 | 1008.9 |
| 20260506004302 | 10 | 31 | 3.2 | 4.8 | 0.00 | 0.00 | 0.00 | 80 | 1008.6 |
| 20260506003758 | 10 | 28 | 3.2 | 9.7 | 0.00 | 0.00 | 0.00 | 80 | 1008.6 |
| 20260506003254 | 10 | 74 | 1.6 | 4.8 | 0.00 | 0.00 | 0.00 | 79 | 1008.7 |
| 20260506002751 | 10 | 49 | 4.8 | 4.8 | 0.00 | 0.00 | 0.00 | 79 | 1008.6 |
| 20260506002247 | 10 | 32 | 3.2 | 6.4 | 0.00 | 0.00 | 0.00 | 80 | 1008.6 |
| 20260506001743 | 10 | 78 | 0.0 | 3.2 | 0.00 | 0.00 | 0.00 | 79 | 1008.8 |
| 20260506001241 | 10 | 82 | 0.0 | 4.8 | 0.00 | 0.00 | 0.00 | 78 | 1008.9 |
| 20260506000737 | 10 | 63 | 3.2 | 3.2 | 0.00 | 0.00 | 0.00 | 77 | 1008.8 |
| 20260506000235 | 11 | 26 | 1.6 | 4.8 | 0.00 | 0.00 | 0.00 | 77 | 1008.8 |
| 20260505235732 | 11 | 79 | 1.6 | 3.2 | 0.00 | 0.00 | 0.00 | 77 | 1008.7 |
| 20260505235230 | 11 | 67 | 3.2 | 4.8 | 0.00 | 0.00 | 0.00 | 78 | 1008.7 |
| 20260505234726 | 11 | 59 | 0.0 | 4.8 | 0.00 | 0.00 | 0.00 | 78 | 1008.7 |
| 20260505234224 | 11 | 79 | 0.0 | 4.8 | 0.00 | 0.00 | 0.00 | 79 | 1008.8 |
| 20260505233720 | 11 | 4 | 3.2 | 3.2 | 0.00 | 0.00 | 0.00 | 79 | 1008.6 |
| 20260505233218 | 11 | 52 | 1.6 | 3.2 | 0.00 | 0.00 | 0.00 | 78 | 1009.2 |
| 20260505232715 | 11 | 20 | 1.6 | 4.8 | 0.00 | 0.00 | 0.00 | 78 | 1008.9 |
| 20260505232212 | 11 | 330 | 4.8 | 9.7 | 0.00 | 0.00 | 0.00 | 78 | 1009.1 |
| 20260505231709 | 11 | 52 | 3.2 | 4.8 | 0.00 | 0.00 | 0.00 | 78 | 1008.8 |
| 20260505231208 | 11 | 7 | 3.2 | 4.8 | 0.00 | 0.00 | 0.00 | 76 | 1008.8 |
| 20260505230706 | 11 | 29 | 3.2 | 4.8 | 0.00 | 0.00 | 0.00 | 75 | 1008.7 |
| 20260505230202 | 11 | 78 | 3.2 | 6.4 | 0.00 | 0.00 | 0.00 | 76 | 1008.8 |
| 20260505225658 | 11 | 70 | 3.2 | 4.8 | 0.00 | 0.00 | 0.00 | 77 | 1008.5 |
| 20260505225155 | 11 | 60 | 1.6 | 4.8 | 0.00 | 0.00 | 0.00 | 78 | 1008.4 |
| 20260505224650 | 11 | 67 | 3.2 | 4.8 | 0.00 | 0.00 | 0.00 | 79 | 1008.4 |
| 20260505224144 | 11 | 63 | 3.2 | 4.8 | 0.00 | 0.00 | 0.00 | 79 | 1008.5 |
| 20260505223641 | 11 | 52 | 1.6 | 4.8 | 0.00 | 0.00 | 0.00 | 79 | 1008.5 |
| 20260505223136 | 11 | 63 | 4.8 | 4.8 | 0.00 | 0.00 | 0.00 | 79 | 1008.5 |
| 20260505222632 | 11 | 42 | 4.8 | 11.3 | 0.00 | 0.00 | 0.00 | 80 | 1008.7 |
| 20260505222128 | 11 | 51 | 4.8 | 9.7 | 0.00 | 0.00 | 0.00 | 81 | 1008.9 |
| 20260505221625 | 11 | 19 | 4.8 | 9.7 | 0.00 | 0.00 | 0.00 | 82 | 1008.9 |
| 20260505221122 | 11 | 350 | 4.8 | 6.4 | 0.00 | 0.00 | 0.00 | 82 | 1008.9 |
| 20260505220620 | 11 | 64 | 1.6 | 4.8 | 0.00 | 0.00 | 0.00 | 82 | 1008.6 |
| 20260505220117 | 11 | 36 | 1.6 | 4.8 | 0.00 | 0.00 | 0.00 | 82 | 1008.7 |
| 20260505215615 | 11 | 56 | 1.6 | 4.8 | 0.00 | 0.00 | 0.00 | 82 | 1008.6 |
| 20260505215113 | 11 | 59 | 3.2 | 4.8 | 0.00 | 0.00 | 0.00 | 81 | 1008.6 |
| 20260505214611 | 11 | 80 | 3.2 | 6.4 | 0.00 | 0.00 | 0.00 | 81 | 1008.7 |
| 20260505214107 | 11 | 66 | 3.2 | 3.2 | 0.00 | 0.00 | 0.00 | 81 | 1008.7 |
| 20260505213605 | 11 | 65 | 1.6 | 3.2 | 0.00 | 0.00 | 0.00 | 81 | 1008.7 |
| 20260505213101 | 11 | 57 | 3.2 | 9.7 | 0.00 | 0.00 | 0.00 | 80 | 1008.8 |
| 20260505212557 | 11 | 67 | 0.0 | 6.4 | 0.00 | 0.00 | 0.00 | 80 | 1008.5 |
| 20260505212055 | 12 | 29 | 6.4 | 9.7 | 0.00 | 0.00 | 0.00 | 80 | 1008.9 |
| 20260505211552 | 12 | 33 | 8.0 | 11.3 | 0.00 | 0.00 | 0.00 | 81 | 1008.8 |
| 20260505211049 | 12 | 81 | 3.2 | 9.7 | 0.00 | 0.00 | 0.00 | 81 | 1008.7 |
| 20260505210545 | 12 | 14 | 6.4 | 11.3 | 0.00 | 0.00 | 0.00 | 82 | 1008.8 |
| 20260505210043 | 12 | 55 | 9.7 | 14.5 | 0.00 | 0.00 | 0.00 | 83 | 1008.7 |
| 20260505205540 | 12 | 293 | 6.4 | 12.9 | 0.00 | 0.18 | 0.18 | 84 | 1008.6 |
| 20260505205038 | 12 | 323 | 8.0 | 14.5 | 0.00 | 0.18 | 0.18 | 84 | 1008.7 |
| 20260505204535 | 12 | 11 | 8.0 | 14.5 | 0.00 | 0.18 | 0.18 | 84 | 1008.5 |
| 20260505204032 | 12 | 268 | 14.5 | 17.7 | 0.00 | 0.18 | 0.18 | 83 | 1008.4 |
| 20260505203529 | 12 | 72 | 0.0 | 1.6 | 0.00 | 0.18 | 0.18 | 81 | 1007.7 |
| 20260505203026 | 12 | 83 | 0.0 | 1.6 | 0.00 | 0.18 | 0.18 | 81 | 1007.4 |
| 20260505202522 | 12 | 91 | 4.8 | 4.8 | 0.00 | 0.18 | 0.18 | 82 | 1007.5 |
| 20260505202018 | 12 | 86 | 3.2 | 11.3 | 0.00 | 0.18 | 0.18 | 82 | 1007.3 |
| 20260505201515 | 12 | 72 | 8.0 | 12.9 | 0.00 | 0.18 | 0.18 | 82 | 1007.3 |
| 20260505201012 | 12 | 78 | 3.2 | 11.3 | 0.00 | 0.18 | 0.18 | 82 | 1007.7 |
| 20260505200510 | 13 | 33 | 9.7 | 17.7 | 0.18 | 0.18 | 0.18 | 82 | 1007.9 |
| 20260505200007 | 13 | 46 | 8.0 | 16.1 | 0.30 | 0.18 | 0.18 | 83 | 1008.1 |
| 20260505195503 | 14 | 44 | 9.7 | 16.1 | 0.00 | 0.13 | 0.13 | 87 | 1008.7 |
| 20260505195000 | 14 | 260 | 8.0 | 11.3 | 0.00 | 0.13 | 0.13 | 91 | 1009.7 |
| 20260505194458 | 13 | 270 | 9.7 | 16.1 | 0.00 | 0.13 | 0.13 | 92 | 1009.6 |
| 20260505193958 | 13 | 309 | 8.0 | 12.9 | 0.00 | 0.13 | 0.13 | 92 | 1008.9 |
| 20260505193455 | 13 | 285 | 3.2 | 3.2 | 0.00 | 0.13 | 0.13 | 92 | 1008.1 |
| 20260505192953 | 13 | 85 | 0.0 | 0.0 | 0.00 | 0.13 | 0.13 | 92 | 1007.5 |
| 20260505192451 | 13 | 88 | 1.6 | 1.6 | 0.00 | 0.13 | 0.13 | 92 | 1007.6 |
| 20260505191948 | 13 | 93 | 0.0 | 1.6 | 0.00 | 0.13 | 0.13 | 92 | 1007.8 |
| 20260505191447 | 13 | 97 | 0.0 | 1.6 | 0.00 | 0.13 | 0.13 | 92 | 1008.0 |
| 20260505190943 | 14 | 98 | 0.0 | 0.0 | 0.00 | 0.13 | 0.13 | 92 | 1008.1 |
| 20260505190438 | 14 | 100 | 0.0 | 1.6 | 0.00 | 0.13 | 0.13 | 92 | 1008.1 |
| 20260505185934 | 14 | 138 | 1.6 | 3.2 | 0.00 | 0.13 | 0.13 | 92 | 1008.1 |
| 20260505185432 | 14 | 98 | 0.0 | 0.0 | 0.00 | 0.13 | 0.13 | 92 | 1007.9 |
| 20260505184928 | 14 | 95 | 0.0 | 0.0 | 0.00 | 0.13 | 0.13 | 92 | 1008.1 |
| 20260505184425 | 14 | 95 | 0.0 | 1.6 | 0.00 | 0.13 | 0.13 | 91 | 1007.9 |
| 20260505183922 | 14 | 109 | 1.6 | 1.6 | 0.00 | 0.13 | 0.13 | 91 | 1008.1 |
| 20260505183419 | 14 | 95 | 0.0 | 0.0 | 0.00 | 0.13 | 0.13 | 91 | 1008.0 |
| 20260505182915 | 15 | 97 | 0.0 | 0.0 | 0.00 | 0.13 | 0.13 | 90 | 1008.0 |
| 20260505182412 | 15 | 99 | 0.0 | 0.0 | 0.00 | 0.13 | 0.13 | 90 | 1008.2 |
| 20260505181908 | 15 | 102 | 0.0 | 0.0 | 0.00 | 0.13 | 0.13 | 89 | 1008.0 |
| 20260505181406 | 15 | 125 | 1.6 | 1.6 | 0.00 | 0.13 | 0.13 | 88 | 1008.1 |
| 20260505180902 | 15 | 80 | 0.0 | 0.0 | 0.00 | 0.13 | 0.13 | 87 | 1008.1 |
| 20260505180359 | 15 | 76 | 1.6 | 1.6 | 0.00 | 0.13 | 0.13 | 88 | 1008.0 |
| 20260505175855 | 15 | 97 | 0.0 | 0.0 | 0.00 | 0.13 | 0.13 | 87 | 1008.2 |
| 20260505175352 | 15 | 97 | 0.0 | 0.0 | 0.18 | 0.13 | 0.13 | 87 | 1008.3 |
| 20260505174848 | 15 | 98 | 0.0 | 0.0 | 0.18 | 0.13 | 0.13 | 86 | 1008.0 |
| 20260505174346 | 15 | 111 | 0.0 | 1.6 | 0.00 | 0.10 | 0.10 | 86 | 1008.2 |
| 20260505173842 | 15 | 98 | 0.0 | 0.0 | 0.00 | 0.10 | 0.10 | 86 | 1008.3 |
| 20260505173339 | 15 | 106 | 0.0 | 3.2 | 0.00 | 0.10 | 0.10 | 86 | 1008.3 |
| 20260505172836 | 15 | 143 | 1.6 | 3.2 | 0.00 | 0.10 | 0.10 | 84 | 1008.4 |
| 20260505172334 | 15 | 111 | 1.6 | 1.6 | 0.00 | 0.10 | 0.10 | 84 | 1008.5 |
| 20260505171833 | 15 | 85 | 0.0 | 0.0 | 0.00 | 0.10 | 0.10 | 84 | 1008.3 |
| 20260505171330 | 15 | 130 | 0.0 | 0.0 | 0.00 | 0.10 | 0.10 | 83 | 1008.2 |
| 20260505170826 | 15 | 103 | 0.0 | 0.0 | 0.00 | 0.10 | 0.10 | 81 | 1008.4 |
| 20260505170323 | 15 | 101 | 0.0 | 0.0 | 0.00 | 0.10 | 0.10 | 81 | 1008.1 |
| 20260505165819 | 16 | 95 | 0.0 | 0.0 | 0.00 | 0.10 | 0.10 | 80 | 1008.3 |
| 20260505165314 | 16 | 94 | 0.0 | 0.0 | 0.00 | 0.10 | 0.10 | 81 | 1008.1 |
| 20260505164810 | 16 | 91 | 0.0 | 0.0 | 0.00 | 0.10 | 0.10 | 80 | 1008.2 |
| 20260505164308 | 16 | 88 | 0.0 | 0.0 | 0.00 | 0.10 | 0.10 | 78 | 1008.1 |
| 20260505163806 | 16 | 87 | 0.0 | 0.0 | 0.00 | 0.10 | 0.10 | 77 | 1008.2 |
| 20260505163304 | 16 | 87 | 0.0 | 0.0 | 0.00 | 0.10 | 0.10 | 75 | 1008.1 |
| 20260505162802 | 16 | 85 | 0.0 | 0.0 | 0.00 | 0.10 | 0.10 | 74 | 1008.2 |
| 20260505162258 | 16 | 78 | 0.0 | 0.0 | 0.00 | 0.10 | 0.10 | 73 | 1008.1 |
| 20260505161755 | 16 | 78 | 0.0 | 0.0 | 0.00 | 0.10 | 0.10 | 73 | 1008.4 |
| 20260505161253 | 16 | 78 | 0.0 | 0.0 | 0.00 | 0.10 | 0.10 | 73 | 1008.1 |
| 20260505160750 | 16 | 78 | 0.0 | 1.6 | 0.00 | 0.10 | 0.10 | 75 | 1008.2 |
| 20260505160248 | 16 | 67 | 1.6 | 1.6 | 0.00 | 0.10 | 0.10 | 75 | 1008.1 |
| 20260505153226 | 17 | 230 | 4.8 | 6.4 | 0.00 | 0.00 | 0.00 | 60 | 1008.6 |
| 20260505152724 | 17 | 342 | 8.0 | 11.3 | 0.00 | 0.00 | 0.00 | 59 | 1008.4 |
| 20260505152220 | 18 | 328 | 6.4 | 12.9 | 0.00 | 0.00 | 0.00 | 58 | 1008.2 |
| 20260505151714 | 18 | 352 | 6.4 | 14.5 | 0.00 | 0.00 | 0.00 | 57 | 1008.1 |
| 20260505151212 | 18 | 70 | 6.4 | 14.5 | 0.00 | 0.00 | 0.00 | 56 | 1008.0 |
| 20260505150708 | 18 | 318 | 6.4 | 11.3 | 0.00 | 0.00 | 0.00 | 53 | 1008.2 |
| 20260505150206 | 19 | 36 | 6.4 | 9.7 | 0.00 | 0.00 | 0.00 | 52 | 1008.3 |
| 20260505140639 | 20 | 330 | 4.8 | 11.3 | 0.00 | 0.00 | 0.00 | 48 | 1008.5 |
| 20260505140136 | 20 | 184 | 4.8 | 9.7 | 0.00 | 0.00 | 0.00 | 49 | 1008.6 |
| 20260505124549 | 21 | 279 | 14.5 | 20.9 | 0.00 | 0.00 | 0.00 | 45 | 1008.9 |
| 20260505124045 | 22 | 244 | 6.4 | 12.9 | 0.00 | 0.00 | 0.00 | 43 | 1009.1 |
| 20260505123542 | 21 | 251 | 11.3 | 16.1 | 0.00 | 0.00 | 0.00 | 45 | 1009.1 |